GW3250 Weather Reports


time (UTC)temp
C
wind
direction
speed
KPH
gust
KPH
rain 1hr
cm
rain 24hr
cm
rain mn
cm
humidity
%
barometer
mb
20260906133556 17 183 0.0 0.0 0.00 0.00 0.00 95 1014.2
20260906133052 18 179 1.6 1.6 0.00 0.00 0.00 92 1014.1
20260906132546 18 193 1.6 1.6 0.00 0.00 0.00 90 1013.8
20260906132042 18 112 0.0 0.0 0.00 0.00 0.00 92 1013.7
20260906131537 16 205 3.2 3.2 0.00 0.00 0.00 98 1013.9
20260906131033 16 189 1.6 1.6 0.00 0.00 0.00 99 1014.3
20260906130532 16 188 1.6 1.6 0.00 0.00 0.00 99 1014.0
20260906130027 15 177 3.2 4.8 0.00 0.00 0.00 99 1014.2
20260906125524 15 186 1.6 1.6 0.00 0.00 0.00 99 1014.2
20260906125019 15 201 1.6 1.6 0.00 0.00 0.00 99 1014.0
20260906124514 15 201 3.2 3.2 0.00 0.00 0.00 99 1014.1
20260906124009 15 201 1.6 3.2 0.00 0.00 0.00 99 1013.9
20260906123508 15 200 3.2 3.2 0.00 0.00 0.00 99 1013.9
20260906123004 15 200 1.6 1.6 0.00 0.00 0.00 99 1013.8
20260906122457 15 199 1.6 1.6 0.00 0.00 0.00 99 1013.6
20260906121954 15 199 3.2 3.2 0.00 0.00 0.00 99 1014.0
20260906121450 15 199 1.6 1.6 0.00 0.00 0.00 99 1013.9
20260906120946 14 199 1.6 3.2 0.00 0.00 0.00 99 1013.7
20260906120441 14 199 1.6 1.6 0.00 0.00 0.00 99 1013.9
20260906115937 14 191 1.6 3.2 0.00 0.00 0.00 99 1013.8
20260906115432 15 188 1.6 1.6 0.00 0.00 0.00 99 1013.7
20260906114926 14 193 1.6 1.6 0.00 0.00 0.00 99 1013.9
20260906114421 14 196 0.0 0.0 0.00 0.00 0.00 99 1013.7
20260906113917 14 194 1.6 1.6 0.00 0.00 0.00 99 1013.6
20260906113415 14 194 3.2 3.2 0.00 0.00 0.00 99 1013.7
20260906112911 14 194 1.6 1.6 0.00 0.00 0.00 99 1013.7
20260906112407 14 193 0.0 0.0 0.00 0.00 0.00 99 1013.5
20260906111902 14 193 0.0 0.0 0.00 0.00 0.00 99 1013.6
20260906111402 14 193 1.6 1.6 0.00 0.00 0.00 99 1013.3
20260906110856 14 193 1.6 1.6 0.00 0.00 0.00 99 1013.4
20260906110352 13 193 1.6 1.6 0.00 0.00 0.00 99 1013.4
20260906105851 13 193 0.0 1.6 0.00 0.00 0.00 99 1013.5
20260906105347 13 193 0.0 1.6 0.00 0.00 0.00 99 1013.5
20260906104843 13 193 0.0 0.0 0.00 0.00 0.00 99 1013.0
20260906104341 13 193 0.0 0.0 0.00 0.00 0.00 99 1013.0
20260906103840 13 193 1.6 3.2 0.00 0.00 0.00 99 1013.0
20260906103338 13 192 0.0 0.0 0.00 0.00 0.00 99 1013.0
20260906102835 13 192 0.0 0.0 0.00 0.00 0.00 99 1013.0
20260906102333 13 193 1.6 1.6 0.00 0.00 0.00 99 1012.5
20260906101829 13 192 1.6 3.2 0.00 0.00 0.00 99 1012.7
20260906101324 13 193 1.6 1.6 0.00 0.00 0.00 99 1012.4
20260906100819 13 192 1.6 1.6 0.00 0.00 0.00 99 1012.5
20260906100318 13 192 3.2 3.2 0.00 0.00 0.00 99 1012.3
20260906095813 13 192 3.2 3.2 0.00 0.00 0.00 99 1012.1
20260906095309 13 192 1.6 1.6 0.00 0.00 0.00 99 1012.3
20260906094808 13 192 0.0 0.0 0.00 0.00 0.00 99 1012.2
20260906094303 13 192 0.0 1.6 0.00 0.00 0.00 99 1012.5
20260906093759 13 192 1.6 1.6 0.00 0.00 0.00 99 1012.3
20260906093255 13 192 0.0 0.0 0.00 0.00 0.00 99 1012.3
20260906092749 13 192 0.0 0.0 0.00 0.00 0.00 99 1012.2
20260906092244 13 192 1.6 1.6 0.00 0.00 0.00 99 1012.0
20260906091740 13 192 1.6 1.6 0.00 0.00 0.00 99 1011.8
20260906091236 13 192 1.6 1.6 0.00 0.00 0.00 99 1011.9
20260906090732 13 192 0.0 1.6 0.00 0.00 0.00 99 1011.9
20260906090231 13 192 0.0 0.0 0.00 0.00 0.00 99 1012.0
20260906085731 13 192 0.0 0.0 0.00 0.00 0.00 99 1011.9
20260906085230 13 192 0.0 0.0 0.00 0.00 0.00 99 1012.0
20260906084724 13 192 1.6 1.6 0.00 0.00 0.00 99 1012.0
20260906084219 13 192 0.0 1.6 0.00 0.00 0.00 99 1012.0
20260906083713 13 192 0.0 1.6 0.00 0.00 0.00 99 1012.0
20260906083209 13 192 1.6 1.6 0.00 0.00 0.00 99 1011.7
20260906082704 13 192 1.6 1.6 0.00 0.00 0.00 99 1011.7
20260906082154 13 192 0.0 0.0 0.00 0.00 0.00 99 1011.7
20260906081649 13 192 0.0 0.0 0.00 0.00 0.00 99 1011.5
20260906081144 13 192 1.6 1.6 0.00 0.00 0.00 99 1011.6
20260906080641 13 192 0.0 1.6 0.00 0.00 0.00 99 1011.5
20260906080136 13 192 0.0 0.0 0.00 0.00 0.00 99 1011.7
20260906075630 13 192 1.6 1.6 0.00 0.00 0.00 99 1011.5
20260906075125 13 192 0.0 0.0 0.00 0.00 0.00 99 1011.7
20260906074620 13 192 0.0 0.0 0.00 0.00 0.00 99 1011.4
20260906074119 13 192 0.0 0.0 0.00 0.00 0.00 99 1011.5
20260906073614 13 192 0.0 0.0 0.00 0.00 0.00 99 1011.6
20260906073110 13 192 0.0 0.0 0.00 0.00 0.00 99 1011.4
20260906072605 13 192 0.0 0.0 0.00 0.00 0.00 99 1011.6
20260906072101 13 192 0.0 0.0 0.00 0.00 0.00 99 1011.6
20260906071557 14 192 0.0 0.0 0.00 0.00 0.00 99 1011.5
20260906071051 14 192 0.0 0.0 0.00 0.00 0.00 99 1011.6
20260906070548 14 192 0.0 0.0 0.00 0.00 0.00 99 1011.6
20260906070043 14 192 0.0 0.0 0.00 0.00 0.00 99 1011.6
20260906065542 14 192 0.0 0.0 0.00 0.00 0.00 99 1011.5
20260906065038 14 192 0.0 0.0 0.00 0.00 0.00 99 1011.5
20260906064534 14 192 0.0 0.0 0.00 0.00 0.00 99 1011.7
20260906064029 14 192 0.0 0.0 0.00 0.00 0.00 99 1011.8
20260906063524 14 192 1.6 1.6 0.00 0.00 0.00 99 1011.8
20260906063020 14 192 0.0 1.6 0.00 0.00 0.00 99 1011.6
20260906062515 14 192 0.0 0.0 0.00 0.00 0.00 99 1011.5
20260906062009 14 192 0.0 0.0 0.00 0.00 0.00 99 1011.7
20260906061506 14 192 0.0 0.0 0.00 0.00 0.00 99 1011.7
20260906061005 14 192 0.0 0.0 0.00 0.00 0.00 99 1011.9
20260906060502 15 192 0.0 0.0 0.00 0.00 0.00 99 1011.9
20260906055953 15 192 1.6 1.6 0.00 0.00 0.00 99 1011.8
20260906055448 15 192 0.0 0.0 0.00 0.00 0.00 99 1011.9
20260906054943 15 192 0.0 0.0 0.00 0.00 0.00 99 1011.7
20260906054438 15 192 0.0 0.0 0.00 0.00 0.00 99 1011.9
20260906053933 15 192 0.0 1.6 0.00 0.00 0.00 99 1011.9
20260906053430 15 192 0.0 0.0 0.00 0.00 0.00 99 1012.0
20260906052925 15 192 0.0 0.0 0.00 0.00 0.00 99 1012.1
20260906052421 15 192 1.6 1.6 0.00 0.00 0.00 99 1011.9
20260906051918 15 193 1.6 3.2 0.00 0.00 0.00 99 1011.9
20260906051413 15 192 0.0 0.0 0.00 0.00 0.00 99 1012.0
20260906050908 15 192 1.6 1.6 0.00 0.00 0.00 99 1011.9
20260906050403 15 79 1.6 3.2 0.00 0.00 0.00 99 1012.0
20260906045902 15 79 0.0 0.0 0.00 0.00 0.00 99 1012.0
20260906045401 15 79 0.0 0.0 0.00 0.00 0.00 99 1011.8
20260906044857 15 78 0.0 0.0 0.00 0.00 0.00 99 1011.9
20260906044351 15 78 0.0 0.0 0.00 0.00 0.00 99 1012.0
20260906043847 15 78 0.0 0.0 0.00 0.00 0.00 99 1011.9
20260906043343 15 79 0.0 0.0 0.00 0.00 0.00 99 1012.0
20260906042838 15 79 0.0 0.0 0.00 0.00 0.00 99 1012.0
20260906042336 15 79 0.0 0.0 0.00 0.00 0.00 99 1012.2
20260906041832 15 78 0.0 0.0 0.00 0.00 0.00 99 1012.2
20260906041329 15 79 0.0 0.0 0.00 0.00 0.00 99 1012.1
20260906040828 15 79 0.0 0.0 0.00 0.00 0.00 99 1011.7
20260906040323 15 79 1.6 1.6 0.00 0.00 0.00 99 1011.8
20260906035819 15 79 0.0 0.0 0.00 0.00 0.00 99 1011.7
20260906035314 15 79 0.0 0.0 0.00 0.00 0.00 99 1011.8
20260906034809 15 78 0.0 0.0 0.00 0.00 0.00 99 1011.7
20260906034309 15 79 0.0 0.0 0.00 0.00 0.00 99 1011.9
20260906033805 15 79 0.0 0.0 0.00 0.00 0.00 99 1011.8
20260906033304 15 78 1.6 1.6 0.00 0.00 0.00 99 1011.8
20260906032801 15 79 0.0 0.0 0.00 0.00 0.00 99 1011.8
20260906032256 15 78 0.0 0.0 0.00 0.00 0.00 99 1011.8
20260906031751 15 78 0.0 0.0 0.00 0.00 0.00 99 1011.9
20260906031247 15 78 1.6 1.6 0.00 0.00 0.00 99 1011.8
20260906030746 15 79 1.6 1.6 0.00 0.00 0.00 99 1011.9
20260906030242 15 78 0.0 0.0 0.00 0.00 0.00 99 1011.5
20260906025741 15 78 0.0 0.0 0.00 0.00 0.00 99 1011.6
20260906025235 15 78 0.0 0.0 0.00 0.00 0.00 99 1011.7
20260906024734 15 78 0.0 0.0 0.00 0.00 0.00 99 1011.6
20260906024234 15 78 0.0 0.0 0.00 0.00 0.00 99 1011.7
20260906023730 15 78 0.0 0.0 0.00 0.00 0.00 99 1011.8
20260906023225 15 78 0.0 0.0 0.00 0.00 0.00 99 1011.7
20260906022720 15 78 0.0 0.0 0.00 0.00 0.00 99 1011.5
20260906022215 15 78 0.0 0.0 0.00 0.00 0.00 99 1011.7
20260906021712 15 78 0.0 0.0 0.00 0.00 0.00 99 1011.7
20260906021210 15 78 0.0 0.0 0.00 0.00 0.00 99 1011.7
20260906020705 15 78 0.0 0.0 0.00 0.00 0.00 99 1011.8
20260906020159 15 78 0.0 0.0 0.00 0.00 0.00 99 1011.5
20260906015654 15 78 0.0 0.0 0.00 0.00 0.00 99 1011.4
20260906015152 15 78 0.0 0.0 0.00 0.00 0.00 98 1011.5
20260906014647 15 78 0.0 0.0 0.00 0.00 0.00 98 1011.5
20260906014143 16 78 0.0 1.6 0.00 0.00 0.00 98 1011.6
20260906013638 16 78 0.0 0.0 0.00 0.00 0.00 97 1011.5
20260906013133 16 78 0.0 0.0 0.00 0.00 0.00 96 1011.3
20260906012628 16 78 0.0 0.0 0.00 0.00 0.00 95 1011.5
20260906012123 16 78 0.0 0.0 0.00 0.00 0.00 95 1011.5
20260906011618 16 78 0.0 0.0 0.00 0.00 0.00 94 1011.4
20260906011113 16 78 0.0 0.0 0.00 0.00 0.00 94 1011.2
20260906010608 16 78 0.0 0.0 0.00 0.00 0.00 95 1011.1
20260906010104 16 78 0.0 0.0 0.00 0.00 0.00 95 1011.2
20260906005603 16 78 0.0 0.0 0.00 0.00 0.00 95 1011.0
20260906005102 16 78 0.0 0.0 0.00 0.00 0.00 95 1011.1
20260906004556 17 78 0.0 0.0 0.00 0.00 0.00 94 1011.2
20260906004051 17 78 0.0 0.0 0.00 0.00 0.00 93 1011.2
20260906003546 17 78 0.0 0.0 0.00 0.00 0.00 92 1011.1
20260906003042 17 78 0.0 0.0 0.00 0.00 0.00 91 1010.7
20260906002537 17 78 0.0 0.0 0.00 0.00 0.00 91 1010.8
20260906002032 17 78 0.0 0.0 0.00 0.00 0.00 90 1010.7
20260906001527 18 78 0.0 0.0 0.00 0.00 0.00 90 1010.9
20260906001021 18 78 0.0 0.0 0.00 0.00 0.00 90 1010.7
20260906000517 18 78 0.0 0.0 0.00 0.00 0.00 87 1010.7
20260906000012 18 78 0.0 1.6 0.00 0.00 0.00 87 1010.7
20260905235506 18 74 1.6 1.6 0.00 0.00 0.00 87 1010.9
20260905235001 18 145 0.0 0.0 0.00 0.00 0.00 87 1010.6
20260905234456 18 151 0.0 1.6 0.00 0.00 0.00 87 1010.4
20260905233950 18 150 0.0 0.0 0.00 0.00 0.00 87 1010.6
20260905233446 18 93 0.0 1.6 0.00 0.00 0.00 87 1010.4
20260905232944 18 149 0.0 1.6 0.00 0.00 0.00 86 1010.4
20260905232441 18 154 0.0 0.0 0.00 0.00 0.00 85 1010.4
20260905231936 19 154 0.0 0.0 0.00 0.00 0.00 84 1010.4
20260905231432 19 154 0.0 0.0 0.00 0.00 0.00 83 1010.4
20260905230928 20 154 0.0 0.0 0.00 0.00 0.00 82 1010.3
20260905230427 20 154 0.0 0.0 0.00 0.00 0.00 83 1010.3
20260905225925 20 154 0.0 1.6 0.00 0.00 0.00 82 1010.5
20260905225420 20 154 0.0 0.0 0.00 0.00 0.00 81 1010.2
20260905224915 20 155 1.6 1.6 0.00 0.00 0.00 80 1010.4
20260905224411 20 148 0.0 1.6 0.00 0.00 0.00 79 1010.4
20260905223905 20 148 0.0 0.0 0.00 0.00 0.00 79 1010.3
20260905223403 20 148 0.0 0.0 0.00 0.00 0.00 80 1010.3
20260905222858 20 148 0.0 0.0 0.00 0.00 0.00 79 1010.2
20260905222356 21 147 0.0 0.0 0.00 0.00 0.00 79 1010.2
20260905221852 21 147 0.0 0.0 0.00 0.00 0.00 77 1010.2
20260905221349 21 147 0.0 0.0 0.00 0.00 0.00 78 1010.2
20260905220839 21 147 0.0 0.0 0.00 0.00 0.00 77 1010.3
20260905220335 21 147 0.0 1.6 0.00 0.00 0.00 77 1009.9
20260905215834 21 165 0.0 1.6 0.00 0.00 0.00 77 1009.9
20260905215330 22 165 0.0 0.0 0.00 0.00 0.00 75 1009.9
20260905214826 22 140 0.0 1.6 0.00 0.00 0.00 73 1009.7
20260905214321 22 139 0.0 0.0 0.00 0.00 0.00 73 1009.8
20260905213816 23 182 1.6 3.2 0.00 0.00 0.00 71 1009.8
20260905213312 23 177 3.2 4.8 0.00 0.00 0.00 67 1009.8
20260905212807 23 162 1.6 1.6 0.00 0.00 0.00 72 1009.8
20260905212307 22 35 0.0 0.0 0.00 0.00 0.00 76 1010.1
20260905211801 22 172 0.0 0.0 0.00 0.00 0.00 76 1009.8
20260905211255 22 148 0.0 1.6 0.00 0.00 0.00 74 1009.8
20260905210753 22 168 1.6 3.2 0.00 0.00 0.00 72 1009.7
20260905210247 22 170 0.0 0.0 0.00 0.00 0.00 70 1009.8
20260905205746 22 170 1.6 1.6 0.00 0.00 0.00 73 1009.6
20260905205241 23 170 1.6 1.6 0.00 0.00 0.00 68 1009.6
20260905204740 23 41 3.2 3.2 0.00 0.00 0.00 68 1009.8
20260905204236 24 192 3.2 3.2 0.00 0.00 0.00 68 1009.6
20260905203735 23 175 1.6 1.6 0.00 0.00 0.00 70 1009.7
20260905203230 22 162 1.6 1.6 0.00 0.00 0.00 69 1009.5
20260905202725 23 140 1.6 1.6 0.00 0.00 0.00 70 1009.6
20260905202221 23 126 1.6 1.6 0.00 0.00 0.00 68 1009.5
20260905201716 22 139 0.0 0.0 0.00 0.00 0.00 73 1009.7
20260905201211 22 162 0.0 0.0 0.00 0.00 0.00 71 1009.6
20260905200706 22 147 0.0 0.0 0.00 0.00 0.00 71 1009.4
20260905200202 22 150 0.0 1.6 0.00 0.00 0.00 67 1009.4
20260905195700 22 153 0.0 0.0 0.00 0.00 0.00 69 1009.7
20260905195154 23 87 0.0 1.6 0.00 0.00 0.00 70 1009.5
20260905194650 23 215 1.6 3.2 0.00 0.00 0.00 70 1009.3
20260905194144 23 159 3.2 3.2 0.00 0.00 0.00 64 1009.5
20260905193638 23 68 3.2 3.2 0.00 0.00 0.00 64 1009.3
20260905193133 24 200 4.8 4.8 0.00 0.00 0.00 61 1009.3
20260905192629 25 202 3.2 3.2 0.00 0.00 0.00 60 1009.3
20260905192125 25 149 1.6 1.6 0.00 0.00 0.00 60 1009.5
20260905191624 25 184 1.6 3.2 0.00 0.00 0.00 59 1009.5
20260905191123 24 229 3.2 4.8 0.00 0.00 0.00 65 1009.6
20260905190621 24 183 1.6 3.2 0.00 0.00 0.00 64 1009.7
20260905190120 24 206 3.2 3.2 0.00 0.00 0.00 62 1009.7
20260905185619 25 132 1.6 3.2 0.00 0.00 0.00 61 1009.7
20260905185114 25 242 1.6 1.6 0.00 0.00 0.00 69 1009.8
20260905184609 24 105 0.0 1.6 0.00 0.00 0.00 71 1009.7
20260905184108 24 87 4.8 6.4 0.00 0.00 0.00 63 1009.5
20260905183607 25 89 1.6 1.6 0.00 0.00 0.00 66 1009.6
20260905183103 23 60 1.6 1.6 0.00 0.00 0.00 68 1009.5
20260905182602 23 108 1.6 1.6 0.00 0.00 0.00 66 1009.5
20260905182057 22 216 3.2 4.8 0.00 0.00 0.00 70 1009.8
20260905181557 23 172 3.2 4.8 0.00 0.00 0.00 69 1009.6
20260905181056 23 155 1.6 3.2 0.00 0.00 0.00 69 1009.6
20260905180551 23 190 1.6 3.2 0.00 0.00 0.00 68 1009.8
20260905180046 23 136 1.6 3.2 0.00 0.00 0.00 72 1009.9
20260905175545 22 126 1.6 1.6 0.00 0.00 0.00 72 1009.6
20260905175041 23 197 1.6 3.2 0.00 0.00 0.00 71 1009.7
20260905174536 23 56 0.0 1.6 0.00 0.00 0.00 69 1010.1
20260905174032 23 67 1.6 1.6 0.00 0.00 0.00 66 1009.8
20260905173528 24 246 3.2 3.2 0.00 0.00 0.00 63 1009.8
20260905173023 23 182 1.6 3.2 0.00 0.00 0.00 69 1009.8
20260905172521 23 215 3.2 3.2 0.00 0.00 0.00 70 1009.9
20260905172017 22 161 1.6 1.6 0.00 0.00 0.00 75 1009.9
20260905171513 22 166 3.2 3.2 0.00 0.00 0.00 71 1009.9
20260905171009 22 281 1.6 1.6 0.00 0.00 0.00 73 1009.9
20260905170506 23 63 3.2 4.8 0.00 0.00 0.00 71 1010.1
20260905170000 23 86 1.6 3.2 0.00 0.00 0.00 72 1009.9
20260905165455 23 126 1.6 1.6 0.00 0.00 0.00 70 1010.4
20260905164949 23 100 0.0 1.6 0.00 0.00 0.00 74 1010.2
20260905164444 22 119 3.2 3.2 0.00 0.00 0.00 74 1010.3
20260905163938 22 62 3.2 3.2 0.00 0.00 0.00 73 1009.9
20260905163435 23 209 1.6 1.6 0.00 0.00 0.00 76 1010.4
20260905162931 23 185 3.2 4.8 0.00 0.00 0.00 72 1010.1
20260905162426 22 115 1.6 3.2 0.00 0.00 0.00 73 1010.2
20260905161921 21 96 0.0 1.6 0.00 0.00 0.00 76 1010.4
20260905161420 21 131 1.6 3.2 0.00 0.00 0.00 76 1010.4
20260905160918 22 182 1.6 3.2 0.00 0.00 0.00 75 1010.5
20260905160412 22 197 1.6 1.6 0.00 0.00 0.00 77 1010.3
20260905155906 21 87 1.6 1.6 0.00 0.00 0.00 80 1010.3
20260905155401 21 204 1.6 3.2 0.00 0.00 0.00 75 1010.4
20260905154900 21 189 4.8 9.7 0.00 0.00 0.00 78 1010.3
20260905154355 23 176 1.6 3.2 0.00 0.00 0.00 76 1010.3
20260905153851 21 187 1.6 4.8 0.00 0.00 0.00 76 1010.3
20260905153347 23 140 4.8 6.4 0.00 0.00 0.00 75 1010.4
20260905152847 22 123 1.6 1.6 0.00 0.00 0.00 76 1010.2
20260905152346 22 60 1.6 3.2 0.00 0.00 0.00 74 1010.5
20260905151841 22 103 3.2 3.2 0.00 0.00 0.00 72 1010.5
20260905151337 22 145 1.6 3.2 0.00 0.00 0.00 76 1010.6
20260905150837 21 213 0.0 0.0 0.00 0.00 0.00 82 1010.4
20260905150331 21 82 0.0 1.6 0.00 0.00 0.00 78 1010.4
20260905145828 22 153 1.6 1.6 0.00 0.00 0.00 78 1010.4
20260905145323 21 168 1.6 1.6 0.00 0.00 0.00 82 1010.5
20260905144822 21 202 0.0 1.6 0.00 0.00 0.00 83 1010.5
20260905144318 21 188 1.6 3.2 0.00 0.00 0.00 79 1010.6
20260905143816 22 202 1.6 3.2 0.00 0.00 0.00 83 1010.8
20260905143311 20 200 1.6 1.6 0.00 0.00 0.00 80 1010.5
20260905142810 20 200 0.0 1.6 0.00 0.00 0.00 82 1010.6
20260905142306 21 204 3.2 3.2 0.00 0.00 0.00 84 1010.5
20260905141800 20 167 1.6 1.6 0.00 0.00 0.00 82 1010.6
20260905141255 20 168 0.0 1.6 0.00 0.00 0.00 86 1010.6
20260905140751 20 167 3.2 6.4 0.00 0.00 0.00 84 1010.5
20260905140251 20 182 4.8 4.8 0.00 0.00 0.00 83 1010.8
20260905135749 19 100 1.6 1.6 0.00 0.00 0.00 86 1010.7
20260905135245 20 78 0.0 0.0 0.00 0.00 0.00 85 1010.6
20260905134744 20 110 3.2 3.2 0.00 0.00 0.00 83 1010.5
20260905134239 19 106 1.6 3.2 0.00 0.00 0.00 87 1010.5